Weather History for Alpine, TX

Change the Weather History Date:

Thursday, July 11, 2013

  Actual Average (KMRF) Record (KMRF)
Temperature  
Mean Temperature 80 °F -  
Max Temperature 94 °F 85 °F 95 °F (1998)
Min Temperature 68 °F 59 °F 55 °F (2005)
Cooling Degree Days 16    
Growing Degree Days 30 (Base 50)    
Moisture  
Dew Point 55 °F    
Average Humidity 44    
Maximum Humidity 65    
Minimum Humidity 24    
Precipitation  
Precipitation 0.00 in - - ()
Sea Level Pressure  
Sea Level Pressure 30.17 in    
Wind  
Wind Speed 5 mph (SSE)    
Max Wind Speed 15 mph    
Max Gust Speed 22 mph    
Visibility 10 miles    
Events      
Averages and records for this station are not official NWS values.
T = Trace of Precipitation, MM = Missing Value Source: NWS Daily Summary

Daily Weather History Graph

Daily Weather History Graph

Search for Another Location

Airport:

Trip Planner

Search our weather history database for the weather conditions in past years. The results will help you decide how hot, cold, wet, or windy it might be!

Date:

Astronomy

Jul. 11, 2013 Rise Set
Actual Time 7:01 AM CDT 8:59 PM CDT
Civil Twilight 6:33 AM CDT 9:26 PM CDT
Nautical Twilight 6:00 AM CDT 9:59 PM CDT
Astronomical Twilight 5:25 AM CDT 10:34 PM CDT
Moon 10:04 AM CDT (7/11) 11:00 PM CDT (7/11)
Length of Visible Light 14h 52m
Length of Day
13h 58m
Waxing Crescent, 11% of the Moon is Illuminated
Jul 11
Waxing Crescent
Jul 15
First Quarter
Jul 22
Full
Jul 29
Last Quarter
Aug 6
New

Hourly Weather History & Observations

Time (CDT) Temp. Heat Index Dew Point Humidity Pressure Visibility Wind Dir Wind Speed Gust Speed Precip Events Conditions
12:15 AM 76.5 °F - 56.8 °F 51% 30.21 in 10.0 mi SSW 4.6 mph - N/A   Clear
12:35 AM 77.2 °F - 56.7 °F 49% 30.21 in 10.0 mi SSW 3.5 mph - N/A   Clear
12:55 AM 75.9 °F - 56.5 °F 51% 30.22 in 10.0 mi Calm Calm - N/A   Clear
1:15 AM 74.7 °F - 56.3 °F 53% 30.22 in 10.0 mi SSW 4.6 mph - N/A   Clear
1:35 AM 74.8 °F - 56.3 °F 52% 30.21 in 10.0 mi South 6.9 mph - N/A   Clear
1:55 AM 74.1 °F - 56.3 °F 54% 30.22 in 10.0 mi SSE 4.6 mph - N/A   Clear
2:15 AM 73.8 °F - 56.3 °F 54% 30.22 in 10.0 mi South 4.6 mph - N/A   Clear
2:35 AM 74.3 °F - 56.3 °F 53% 30.22 in 10.0 mi SSW 5.8 mph - N/A   Clear
2:55 AM 72.9 °F - 55.9 °F 55% 30.22 in 10.0 mi SSW 4.6 mph - N/A   Clear
3:15 AM 72.7 °F - 56.3 °F 56% 30.21 in 10.0 mi SSW 3.5 mph - N/A   Clear
3:35 AM 72.7 °F - 56.3 °F 56% 30.21 in 10.0 mi WSW 4.6 mph - N/A   Clear
3:55 AM 72.7 °F - 56.3 °F 56% 30.21 in 10.0 mi WSW 3.5 mph - N/A   Clear
4:15 AM 72.5 °F - 56.3 °F 57% 30.20 in 10.0 mi Calm Calm - N/A   Clear
4:35 AM 72.5 °F - 56.5 °F 57% 30.20 in 10.0 mi Calm Calm - N/A   Clear
4:55 AM 71.8 °F - 56.5 °F 58% 30.20 in 10.0 mi SW 4.6 mph - N/A   Clear
5:15 AM 70.0 °F - 56.7 °F 63% 30.19 in 10.0 mi SSW 4.6 mph - N/A   Clear
5:35 AM 69.6 °F - 56.8 °F 64% 30.19 in 10.0 mi SW 9.2 mph - N/A   Clear
5:55 AM 70.3 °F - 56.8 °F 62% 30.20 in 10.0 mi SSW 4.6 mph - N/A   Clear
6:15 AM 69.6 °F - 56.8 °F 64% 30.20 in 10.0 mi SW 5.8 mph - N/A   Clear
6:35 AM 70.9 °F - 57.0 °F 61% 30.20 in 10.0 mi SSW 8.1 mph - N/A   Clear
6:55 AM 70.5 °F - 57.0 °F 62% 30.20 in 10.0 mi SSW 8.1 mph - N/A   Clear
7:15 AM 68.9 °F - 56.7 °F 65% 30.21 in 7.0 mi Calm Calm - N/A   Clear
7:35 AM 70.2 °F - 56.8 °F 63% 30.21 in 7.0 mi South 5.8 mph - N/A   Clear
7:55 AM 72.7 °F - 57.2 °F 58% 30.21 in 10.0 mi SSW 3.5 mph - N/A   Clear
8:15 AM 74.3 °F - 57.4 °F 55% 30.22 in 10.0 mi SSW 3.5 mph - N/A   Clear
8:35 AM 75.4 °F - 57.4 °F 53% 30.22 in 10.0 mi Calm Calm - N/A   Clear
8:55 AM 76.5 °F - 57.2 °F 51% 30.22 in 10.0 mi South 3.5 mph - N/A   Clear
9:15 AM 78.1 °F - 57.2 °F 49% 30.22 in 10.0 mi Calm Calm - N/A   Clear
9:35 AM 79.7 °F - 57.0 °F 46% 30.22 in 10.0 mi Calm Calm - N/A   Clear
9:55 AM 81.9 °F 81.7 °F 57.0 °F 43% 30.22 in 10.0 mi SE 3.5 mph - N/A   Clear
10:15 AM 82.6 °F 82.1 °F 56.8 °F 41% 30.22 in 10.0 mi North 4.6 mph - N/A   Clear
10:35 AM 84.0 °F 83.2 °F 56.5 °F 39% 30.21 in 10.0 mi Calm Calm - N/A   Clear
10:55 AM 84.4 °F 83.4 °F 56.3 °F 38% 30.21 in 10.0 mi SW 4.6 mph - N/A   Clear
11:15 AM 85.3 °F 84.1 °F 55.9 °F 37% 30.21 in 10.0 mi Calm Calm - N/A   Clear
11:35 AM 87.1 °F 85.7 °F 56.1 °F 35% 30.20 in 10.0 mi SE 4.6 mph - N/A   Clear
11:55 AM 87.3 °F 85.7 °F 55.8 °F 34% 30.20 in 10.0 mi West 4.6 mph - N/A   Scattered Clouds
12:15 PM 87.8 °F 86.1 °F 55.6 °F 33% 30.19 in 10.0 mi NNW 5.8 mph - N/A   Scattered Clouds
12:55 PM 88.5 °F 86.7 °F 55.0 °F 32% 30.18 in 10.0 mi ESE 4.6 mph - N/A   Overcast
1:15 PM 90.1 °F 87.9 °F 54.0 °F 29% 30.17 in 10.0 mi East 9.2 mph - N/A   Mostly Cloudy
1:35 PM 88.7 °F 86.5 °F 53.6 °F 30% 30.17 in 10.0 mi East 8.1 mph - N/A   Scattered Clouds
1:55 PM 90.9 °F 88.5 °F 53.6 °F 28% 30.16 in 10.0 mi SSE 3.5 mph - N/A   Scattered Clouds
2:35 PM 92.3 °F 89.9 °F 53.8 °F 27% 30.15 in 10.0 mi East 5.8 mph - N/A   Scattered Clouds
2:55 PM 89.4 °F - 52.2 °F 28% 30.15 in 10.0 mi East 8.1 mph - N/A   Mostly Cloudy
3:15 PM 92.3 °F - 52.0 °F 25% 30.14 in 10.0 mi Calm Calm - N/A   Mostly Cloudy
3:35 PM 93.9 °F - 52.0 °F 24% 30.13 in 10.0 mi East 3.5 mph 9.2 mph N/A   Scattered Clouds
3:55 PM 91.8 °F - 51.8 °F 26% 30.13 in 10.0 mi ENE 11.5 mph 18.4 mph N/A   Scattered Clouds
4:15 PM 93.2 °F - 51.3 °F 24% 30.12 in 10.0 mi NE 8.1 mph 17.3 mph N/A   Scattered Clouds
4:35 PM 90.7 °F - 51.3 °F 26% 30.11 in 10.0 mi SE 4.6 mph - N/A   Mostly Cloudy
4:55 PM 93.0 °F - 50.7 °F 24% 30.11 in 10.0 mi SE 13.8 mph 17.3 mph N/A   Mostly Cloudy
5:55 PM 89.6 °F - 50.4 °F 26% 30.10 in 10.0 mi ESE 11.5 mph - N/A   Mostly Cloudy
6:15 PM 89.1 °F - 50.2 °F 26% 30.10 in 10.0 mi SE 11.5 mph - N/A   Overcast
6:55 PM 88.3 °F - 50.0 °F 27% 30.11 in 10.0 mi Calm Calm - N/A   Overcast
7:15 PM 88.0 °F 86.1 °F 54.5 °F 32% 30.11 in 10.0 mi West 6.9 mph - N/A   Overcast
7:35 PM 85.1 °F 83.6 °F 54.5 °F 35% 30.11 in 10.0 mi NW 13.8 mph 18.4 mph N/A   Mostly Cloudy
7:55 PM 84.9 °F 83.3 °F 53.4 °F 34% 30.11 in 10.0 mi NNW 8.1 mph - N/A   Scattered Clouds
8:15 PM 84.2 °F - 52.5 °F 33% 30.11 in 10.0 mi Calm Calm - N/A   Scattered Clouds
8:35 PM 83.5 °F - 52.5 °F 34% 30.11 in 10.0 mi ESE 8.1 mph - N/A   Clear
8:55 PM 83.5 °F - 51.8 °F 33% 30.11 in 10.0 mi SE 8.1 mph - N/A   Clear
9:15 PM 82.4 °F - 52.9 °F 36% 30.11 in 10.0 mi ESE 10.4 mph 18.4 mph N/A   Clear
9:35 PM 81.5 °F 80.8 °F 53.6 °F 38% 30.11 in 10.0 mi ESE 12.7 mph 18.4 mph N/A   Clear
9:55 PM 80.8 °F 80.4 °F 54.0 °F 39% 30.12 in 10.0 mi ESE 5.8 mph 18.4 mph N/A   Clear
10:15 PM 79.9 °F - 55.4 °F 43% 30.13 in 10.0 mi SE 9.2 mph 13.8 mph N/A   Clear
10:35 PM 79.2 °F - 55.8 °F 44% 30.13 in 10.0 mi SE 12.7 mph 18.4 mph N/A   Clear
10:55 PM 78.4 °F - 55.8 °F 45% 30.14 in 10.0 mi SSE 12.7 mph 19.6 mph N/A   Clear
11:15 PM 77.9 °F - 55.9 °F 47% 30.15 in 10.0 mi SSE 12.7 mph - N/A   Clear
11:35 PM 77.2 °F - 56.5 °F 49% 30.15 in 10.0 mi SE 15.0 mph 21.9 mph N/A   Clear
11:55 PM 76.5 °F - 56.3 °F 50% 30.15 in 10.0 mi SSE 10.4 mph 13.8 mph N/A   Clear